Starlink 33583

operational
NORAD ID: 63503 Int'l Des: 2025-071 Owner: SPXS Country: US Constellation: starlink
LEOCIRCULAR

Starlink 33583について

説明を読み込み中...

リアルタイム位置

3D地球を読み込み中...

次回通過

高度履歴

Altitude vs Time

uPlot chart will show altitude changes over time

軌道要素

1 63503U 25071L 25303.65769907 .00051908 00000-0 17521-2 0 9995
2 63503 53.1588 26.5881 0001377 108.6873 251.4278 15.30207961 32839
Epoch: Oct 30, 2025 • Age: 25 hours

現在のステータス

高度 476.8 km
速度 7.63 km/s
衛星直下点 -3.85°S, 85.97°E
打ち上げ日 Apr 7, 2025
運用期間 0.5 years
タイプ internet

技術仕様

分類 Payload
質量 575.00 kg
乾燥質量 530.00 kg
総質量 575.00 kg
長さ 0.30 m
直径 4.10 m
スパン 29.00 m
形状 Box + pan
製造者 SPXS
バスタイプ Starlink V2MO
フェーズステータス In Orbit
所有者/国 SPXS/US

大規模コンステレーション

Loading constellations...